H1 CPF 2 NER 2020 12 7 9 342 01 glonass127 H2 1106403 9127 37869 2020 12 7 0 0 0 2020 12 10 23 45 0 900 1 1 0 0 0 1 H9 10 0 59190 0.00000 0 7008627.753 23432552.498 7328940.440 10 0 59190 900.00000 0 6642536.108 22407514.553 10292392.954 10 0 59190 1800.00000 0 6023562.731 21109260.655 13056596.197 10 0 59190 2700.00000 0 5128775.641 19592331.988 15568166.905 10 0 59190 3600.00000 0 3946907.957 17916758.451 17778642.129 10 0 59190 4500.00000 0 2479080.922 16145570.531 19645395.584 10 0 59190 5400.00000 0 739010.244 14342210.162 21132441.014 10 0 59190 6300.00000 0 -1247313.024 12567947.150 22211109.068 10 0 59190 7200.00000 0 -3442454.268 10879407.045 22860586.392 10 0 59190 8100.00000 0 -5798846.390 9326311.274 23068308.088 10 0 59190 9000.00000 0 -8260527.579 7949521.452 22830197.073 10 0 59190 9900.00000 0 -10765235.883 6779467.448 22150746.145 10 0 59190 10800.00000 0 -13246776.408 5835023.124 21042941.064 10 0 59190 11700.00000 0 -15637565.693 5122875.703 19528025.279 10 0 59190 12600.00000 0 -17871250.180 4637414.847 17635109.467 10 0 59190 13500.00000 0 -19885292.256 4361146.428 15400631.589 10 0 59190 14400.00000 0 -21623417.888 4265614.553 12867675.700 10 0 59190 15300.00000 0 -23037824.715 4312794.449 10085160.523 10 0 59190 16200.00000 0 -24091058.519 4456899.031 7106911.373 10 0 59190 17100.00000 0 -24757478.931 4646524.303 3990631.590 10 0 59190 18000.00000 0 -25024251.613 4827044.021 796792.182 10 0 59190 18900.00000 0 -24891823.504 4943152.730 -2412539.505 10 0 59190 19800.00000 0 -24373859.159 4941449.244 -5574909.491 10 0 59190 20700.00000 0 -23496638.871 4772950.118 -8628701.073 10 0 59190 21600.00000 0 -22297942.275 4395424.831 -11514348.176 10 0 59190 22500.00000 0 -20825463.190 3775451.432 -14175513.044 10 0 59190 23400.00000 0 -19134821.890 2890102.880 -16560203.558 10 0 59190 24300.00000 0 -17287258.531 1728189.838 -18621806.676 10 0 59190 25200.00000 0 -15347105.362 291004.562 -20320016.093 10 0 59190 26100.00000 0 -13379145.151 -1407468.021 -21621634.500 10 0 59190 27000.00000 0 -11445968.160 -3340883.022 -22501233.553 10 0 59190 27900.00000 0 -9605439.983 -5471399.603 -22941657.853 10 0 59190 28800.00000 0 -7908387.796 -7751040.818 -22934362.552 10 0 59190 29700.00000 0 -6396602.839 -10123492.496 -22479577.933 10 0 59190 30600.00000 0 -5101243.150 -12526265.530 -21586297.968 10 0 59190 31500.00000 0 -4041703.199 -14893130.296 -20272093.646 10 0 59190 32400.00000 0 -3224996.691 -17156720.484 -18562755.542 10 0 59190 33300.00000 0 -2645676.716 -19251196.532 -16491773.619 10 0 59190 34200.00000 0 -2286294.300 -21114856.429 -14099665.661 10 0 59190 35100.00000 0 -2118373.357 -22692584.292 -11433168.757 10 0 59190 36000.00000 0 -2103858.107 -23938034.323 -8544310.955 10 0 59190 36900.00000 0 -2196969.081 -24815459.262 -5489382.596 10 0 59190 37800.00000 0 -2346386.821 -25301107.924 -2327828.655 10 0 59190 38700.00000 0 -2497668.856 -25384134.971 878915.324 10 0 59190 39600.00000 0 -2595796.308 -25066986.765 4068620.120 10 0 59190 40500.00000 0 -2587741.566 -24365249.426 7179468.867 10 0 59190 41400.00000 0 -2424948.294 -23306967.703 10151248.797 10 0 59190 42300.00000 0 -2065619.433 -21931465.167 12926505.927 10 0 59190 43200.00000 0 -1476717.452 -20287716.737 15451641.252 10 0 59190 44100.00000 0 -635593.638 -18432342.471 17677928.615 10 0 59190 45000.00000 0 468821.025 -16427306.750 19562436.148 10 0 59190 45900.00000 0 1835312.522 -14337418.288 21068835.485 10 0 59190 46800.00000 0 3450197.114 -12227733.925 22168085.069 10 0 59190 47700.00000 0 5287659.183 -10160972.572 22838976.177 10 0 59190 48600.00000 0 7310600.395 -8195044.650 23068532.735 10 0 59190 49500.00000 0 9471966.339 -6380797.437 22852258.268 10 0 59190 50400.00000 0 11716497.470 -4760067.836 22194225.752 10 0 59190 51300.00000 0 13982834.112 -3364121.631 21107008.487 10 0 59190 52200.00000 0 16205890.794 -2212542.709 19611452.548 10 0 59190 53100.00000 0 18319403.852 -1312617.803 17736293.851 10 0 59190 54000.00000 0 20258548.739 -659242.217 15517625.367 10 0 59190 54900.00000 0 21962519.980 -235350.920 12998222.657 10 0 59190 55800.00000 0 23376967.275 -12857.879 10226738.559 10 0 59190 56700.00000 0 24456186.415 45934.660 7256780.501 10 0 59190 57600.00000 0 25164972.915 -13484.994 4145886.477 10 0 59190 58500.00000 0 25480059.440 -139995.254 954418.273 10 0 59190 59400.00000 0 25391074.943 -279244.143 -2255607.345 10 0 59190 60300.00000 0 24900983.072 -376196.147 -5421726.964 10 0 59190 61200.00000 0 24025979.094 -377714.561 -8482254.276 10 0 59190 62100.00000 0 22794847.627 -235068.565 -11377494.517 10 0 59190 63000.00000 0 21247806.406 93743.195 -14050924.488 10 0 59190 63900.00000 0 19434883.619 641953.376 -16450313.433 10 0 59190 64800.00000 0 17413896.492 1432360.102 -18528761.169 10 0 59190 65700.00000 0 15248116.185 2476107.788 -20245631.500 10 0 59190 66600.00000 0 13003717.796 3771968.665 -21567361.116 10 0 59190 67500.00000 0 10747123.504 5306157.589 -22468126.981 10 0 59190 68400.00000 0 8542351.516 7052689.622 -22930358.282 10 0 59190 69300.00000 0 6448483.168 8974266.435 -22945082.432 10 0 59190 70200.00000 0 4517355.184 11023654.765 -22512098.242 10 0 59190 71100.00000 0 2791574.175 13145498.993 -21639973.123 10 0 59190 72000.00000 0 1302936.456 15278491.203 -20345864.906 10 0 59190 72900.00000 0 71318.509 17357806.883 -18655172.585 10 0 59190 73800.00000 0 -895916.959 19317703.205 -16601023.806 10 0 59190 74700.00000 0 -1603976.533 21094169.975 -14223610.358 10 0 59190 75600.00000 0 -2070153.575 22627521.438 -11569385.924 10 0 59190 76500.00000 0 -2322830.951 23864819.935 -8690143.112 10 0 59190 77400.00000 0 -2400014.039 24762029.883 -5641989.174 10 0 59190 78300.00000 0 -2347458.834 25285812.392 -2484241.647 10 0 59190 79200.00000 0 -2216476.749 25414886.429 721733.519 10 0 59190 80100.00000 0 -2061510.827 25140901.005 3913717.808 10 0 59190 81000.00000 0 -1937587.213 24468783.731 7029846.275 10 0 59190 81900.00000 0 -1897750.209 23416553.116 10009800.518 10 0 59190 82800.00000 0 -1990589.247 22014604.388 12795965.662 10 0 59190 83700.00000 0 -2257961.549 20304500.304 15334529.873 10 0 59190 84600.00000 0 -2733005.525 18337318.534 17576506.466 10 0 59190 85500.00000 0 -3438527.287 16171625.100 19478660.430 10 0 59191 0.00000 0 -4385826.965 13871158.026 21004323.414 10 0 59191 900.00000 0 -5574013.664 11502316.539 22124083.551 10 0 59191 1800.00000 0 -6989836.169 9131558.731 22816338.262 10 0 59191 2700.00000 0 -8608038.794 6822813.802 23067701.442 10 0 59191 3600.00000 0 -10392226.575 4635013.418 22873257.986 10 0 59191 4500.00000 0 -12296206.612 2619842.852 22236661.351 10 0 59191 5400.00000 0 -14265751.423 819802.701 21170072.195 10 0 59191 6300.00000 0 -16240713.580 -733340.032 19693938.527 10 0 59191 7200.00000 0 -18157406.211 -2019648.273 17836620.270 10 0 59191 8100.00000 0 -19951152.684 -3031613.625 15633863.675 10 0 59191 9000.00000 0 -21558901.352 -3774232.534 13128133.593 10 0 59191 9900.00000 0 -22921797.552 -4264556.078 10367814.352 10 0 59191 10800.00000 0 -23987606.121 -4530731.351 7406292.537 10 0 59191 11700.00000 0 -24712882.826 -4610573.578 4300937.589 10 0 59191 12600.00000 0 -25064802.653 -4549727.999 1111998.705 10 0 59191 13500.00000 0 -25022566.548 -4399498.289 -2098561.390 10 0 59191 14400.00000 0 -24578325.264 -4214432.961 -5268273.333 10 0 59191 15300.00000 0 -23737578.963 -4049772.174 -8335384.672 10 0 59191 16200.00000 0 -22519033.328 -3958863.986 -11240075.327 10 0 59191 17100.00000 0 -20953915.968 -3990661.130 -13925639.883 10 0 59191 18000.00000 0 -19084780.155 -4187406.427 -16339611.941 10 0 59191 18900.00000 0 -16963845.060 -4582607.329 -18434806.852 10 0 59191 19800.00000 0 -14650941.689 -5199387.903 -20170260.769 10 0 59191 20700.00000 0 -12211150.972 -6049290.449 -21512046.107 10 0 59191 21600.00000 0 -9712233.661 -7131579.623 -22433946.256 10 0 59191 22500.00000 0 -7221960.717 -8433080.234 -22917975.497 10 0 59191 23400.00000 0 -4805457.089 -9928556.768 -22954733.382 10 0 59191 24300.00000 0 -2522671.009 -11581619.337 -22543586.565 10 0 59191 25200.00000 0 -426075.253 -13346117.984 -21692674.699 10 0 59191 26100.00000 0 1441303.242 -15167966.284 -20418740.832 10 0 59191 27000.00000 0 3047443.543 -16987316.768 -18746790.403 10 0 59191 27900.00000 0 4372416.550 -18740995.749 -16709586.499 10 0 59191 28800.00000 0 5408952.818 -20365094.123 -14346992.458 10 0 59191 29700.00000 0 6162471.069 -21797604.354 -11705175.965 10 0 59191 30600.00000 0 6650569.130 -22980992.172 -8835691.499 10 0 59191 31500.00000 0 6902001.791 -23864594.619 -5794460.502 10 0 59191 32400.00000 0 6955191.855 -24406743.885 -2640670.358 10 0 59191 33300.00000 0 6856340.038 -24576528.427 564385.239 10 0 59191 34200.00000 0 6657215.965 -24355118.527 3758501.062 10 0 59191 35100.00000 0 6412725.390 -23736602.180 6879766.557 10 0 59191 36000.00000 0 6178357.539 -22728297.938 9867760.012 10 0 59191 36900.00000 0 6007620.733 -21350533.335 12664707.820 10 0 59191 37800.00000 0 5949574.235 -19635899.690 15216587.283 10 0 59191 38700.00000 0 6046559.535 -17628015.516 17474152.924 10 0 59191 39600.00000 0 6332225.396 -15379850.761 19393868.075 10 0 59191 40500.00000 0 6829928.391 -12951681.569 20938725.662 10 0 59191 41400.00000 0 7551574.919 -10408759.801 22078944.339 10 0 59191 42300.00000 0 8496952.370 -7818792.770 22792528.352 10 0 59191 43200.00000 0 9653577.216 -5249335.690 23065681.959 10 0 59191 44100.00000 0 10997066.771 -2765202.614 22893071.548 10 0 59191 45000.00000 0 12492020.177 -426000.717 22277930.955 10 0 59191 45900.00000 0 14093373.632 1716112.304 21232007.907 10 0 59191 46800.00000 0 15748175.553 3618356.802 19775351.875 10 0 59191 47700.00000 0 17397710.123 5248867.212 17935946.143 10 0 59191 48600.00000 0 18979883.110 6587772.664 15749189.407 10 0 59191 49500.00000 0 20431772.622 7627777.577 13257234.776 10 0 59191 50400.00000 0 21692239.838 8374217.626 10508196.780 10 0 59191 51300.00000 0 22704491.490 8844588.098 7555239.599 10 0 59191 52200.00000 0 23418486.925 9067563.383 4455562.260 10 0 59191 53100.00000 0 23793088.001 9081547.654 1269299.209 10 0 59191 54000.00000 0 23797860.053 8932816.940 -1941643.299 10 0 59191 54900.00000 0 23414446.082 8673330.336 -5114792.600 10 0 59191 55800.00000 0 22637453.760 8358302.856 -8188332.875 10 0 59191 56700.00000 0 21474815.224 8043643.126 -11102321.550 10 0 59191 57600.00000 0 19947601.873 7783365.610 -13799873.778 10 0 59191 58500.00000 0 18089299.712 7627088.627 -16228290.189 10 0 59191 59400.00000 0 15944573.963 7617726.284 -18340104.177 10 0 59191 60300.00000 0 13567573.717 7789474.333 -20094026.576 10 0 59191 61200.00000 0 11019847.407 8166177.545 -21455767.661 10 0 59191 62100.00000 0 8367956.622 8760149.745 -22398719.187 10 0 59191 63000.00000 0 5680888.831 9571498.193 -22904482.220 10 0 59191 63900.00000 0 3027378.242 10587982.036 -22963229.870 10 0 59191 64800.00000 0 473247.738 11785411.581 -22573897.700 10 0 59191 65700.00000 0 -1921116.243 13128571.654 -21744198.278 10 0 59191 66600.00000 0 -4103049.911 14572629.744 -20490460.077 10 0 59191 67500.00000 0 -6029564.045 16064968.816 -18837294.704 10 0 59191 68400.00000 0 -7668880.819 17547366.502 -16817099.915 10 0 59191 69300.00000 0 -9001492.675 18958427.661 -14469409.358 10 0 59191 70200.00000 0 -10020701.040 20236166.687 -11840103.036 10 0 59191 71100.00000 0 -10732614.993 21320629.890 -8980495.260 10 0 59191 72000.00000 0 -11155612.956 22156446.795 -5946319.282 10 0 59191 72900.00000 0 -11319293.280 22695202.806 -2796629.710 10 0 59191 73800.00000 0 -11262961.048 22897533.593 407354.841 10 0 59191 74700.00000 0 -11033717.649 22734853.829 3603445.384 10 0 59191 75600.00000 0 -10684236.014 22190648.742 6729688.789 10 0 59191 76500.00000 0 -10270316.995 21261275.610 9725563.092 10 0 59191 77400.00000 0 -9848330.796 19956243.112 12533138.981 10 0 59191 78300.00000 0 -9472651.484 18297958.224 15098185.841 10 0 59191 79200.00000 0 -9193192.089 16320952.327 17371202.238 10 0 59191 80100.00000 0 -9053142.958 14070619.506 19308352.514 10 0 59191 81000.00000 0 -9087007.020 11601519.658 20872293.315 10 0 59191 81900.00000 0 -9319013.036 8975316.269 22032876.098 10 0 59191 82800.00000 0 -9761972.056 6258433.326 22767713.865 10 0 59191 83700.00000 0 -10416624.151 3519526.592 23062602.857 10 0 59191 84600.00000 0 -11271502.506 826871.688 22911792.215 10 0 59191 85500.00000 0 -12303320.975 -1754225.285 22318097.004 10 0 59192 0.00000 0 -13477870.017 -4163889.978 21292852.439 10 0 59192 900.00000 0 -14751385.546 -6349915.126 19855709.279 10 0 59192 1800.00000 0 -16072335.122 -8269678.455 18034273.596 10 0 59192 2700.00000 0 -17383549.965 -9891663.966 15863595.397 10 0 59192 3600.00000 0 -18624615.266 -11196525.303 13385514.425 10 0 59192 4500.00000 0 -19734420.959 -12177645.717 10647873.342 10 0 59192 5400.00000 0 -20653767.268 -12841171.299 7703611.445 10 0 59192 6300.00000 0 -21327916.312 -13205515.003 4609754.536 10 0 59192 7200.00000 0 -21708982.207 -13300351.099 1426319.213 10 0 59192 8100.00000 0 -21758058.042 -13165141.304 -1784848.055 10 0 59192 9000.00000 0 -21446988.257 -12847253.849 -4961274.783 10 0 59192 9900.00000 0 -20759709.309 -12399754.427 -8041085.381 10 0 59192 10800.00000 0 -19693099.339 -11878962.567 -10964218.421 10 0 59192 11700.00000 0 -18257298.136 -11341877.526 -13673613.241 10 0 59192 12600.00000 0 -16475481.283 -10843583.931 -16116340.991 10 0 59192 13500.00000 0 -14383095.700 -10434748.760 -18244656.371 10 0 59192 14400.00000 0 -12026586.996 -10159317.635 -20016947.787 10 0 59192 15300.00000 0 -9461671.083 -10052510.002 -21398565.788 10 0 59192 16200.00000 0 -6751222.133 -10139200.022 -22362512.312 10 0 59192 17100.00000 0 -3962865.485 -10432753.258 -22889976.394 10 0 59192 18000.00000 0 -1166376.897 -10934369.578 -22970705.217 10 0 59192 18900.00000 0 1569002.349 -11632960.715 -22603203.145 10 0 59192 19800.00000 0 4177221.542 -12505567.754 -21794754.958 10 0 59192 20700.00000 0 6597936.209 -13518300.542 -20561273.359 10 0 59192 21600.00000 0 8778778.139 -14627758.481 -18926974.486 10 0 59192 22500.00000 0 10677285.338 -15782871.565 -16923888.756 10 0 59192 23400.00000 0 12262412.135 -16927082.564 -14591217.789 10 0 59192 24300.00000 0 13515558.014 -18000776.865 -11974551.297 10 0 59192 25200.00000 0 14431074.367 -18943856.170 -9124960.556 10 0 59192 26100.00000 0 15016230.648 -19698346.440 -6097987.585 10 0 59192 27000.00000 0 15290644.492 -20210929.480 -2952551.050 10 0 59192 27900.00000 0 15285202.925 -20435291.265 250208.732 10 0 59192 28800.00000 0 15040523.050 -20334188.355 3448122.202 10 0 59192 29700.00000 0 14605019.686 -19881146.183 6579196.710 10 0 59192 30600.00000 0 14032663.407 -19061718.831 9582812.900 10 0 59192 31500.00000 0 13380524.725 -17874258.679 12400888.337 10 0 59192 32400.00000 0 12706208.427 -16330164.930 14978986.748 10 0 59192 33300.00000 0 12065285.798 -14453601.618 17267352.644 10 0 59192 34200.00000 0 11508831.849 -12280697.627 19221852.909 10 0 59192 35100.00000 0 11081169.668 -9858262.188 20804809.074 10 0 59192 36000.00000 0 10817914.910 -7242068.801 21985706.196 10 0 59192 36900.00000 0 10744400.798 -4494777.766 22741766.499 10 0 59192 37800.00000 0 10874548.242 -1683581.740 23058378.354 10 0 59192 38700.00000 0 11210227.446 1122330.432 22929373.531 10 0 59192 39600.00000 0 11741137.450 3854389.055 22357147.960 10 0 59192 40500.00000 0 12445209.073 6447232.513 21352623.703 10 0 59192 41400.00000 0 13289515.538 8841165.124 19935052.199 10 0 59192 42300.00000 0 14231654.360 10984384.089 18131661.328 10 0 59192 43200.00000 0 15221544.708 12834884.809 15977151.368 10 0 59192 44100.00000 0 16203567.166 14361966.333 13513047.481 10 0 59192 45000.00000 0 17118958.117 15547274.443 10786919.060 10 0 59192 45900.00000 0 17908359.866 16385338.549 7851478.910 10 0 59192 46800.00000 0 18514420.251 16883579.055 4763577.773 10 0 59192 47700.00000 0 18884332.461 17061783.693 1583112.347 10 0 59192 48600.00000 0 18972207.401 16951073.588 -1628132.940 10 0 59192 49500.00000 0 18741177.026 16592401.440 -4807688.191 10 0 59192 50400.00000 0 18165137.726 16034644.360 -7893620.549 10 0 59192 51300.00000 0 17230057.471 15332371.586 -10825752.266 10 0 59192 52200.00000 0 15934788.623 14543381.707 -13546849.352 10 0 59192 53100.00000 0 14291349.194 13726114.372 -16003755.882 10 0 59192 54000.00000 0 12324658.023 12937047.330 -18148450.136 10 0 59192 54900.00000 0 10071732.770 12228190.588 -19939000.245 10 0 59192 55800.00000 0 7580382.851 11644785.540 -21340399.023 10 0 59192 56700.00000 0 4907451.228 11223308.169 -22325260.437 10 0 59192 57600.00000 0 2116678.352 10989862.273 -22874363.138 10 0 59192 58500.00000 0 -723721.985 10959031.811 -22977029.793 10 0 59192 59400.00000 0 -3543672.988 11133241.462 -22631334.653 10 0 59192 60300.00000 0 -6273921.598 11502652.501 -21844135.423 10 0 59192 61200.00000 0 -8848688.578 12045597.898 -20630929.287 10 0 59192 62100.00000 0 -11208170.927 12729537.277 -19015536.690 10 0 59192 63000.00000 0 -13300792.054 13512490.031 -17029619.993 10 0 59192 63900.00000 0 -15085106.185 14344884.442 -14712047.631 10 0 59192 64800.00000 0 -16531278.583 15171742.961 -12108117.474 10 0 59192 65700.00000 0 -17622081.437 15935109.725 -9268655.903 10 0 59192 66600.00000 0 -18353366.025 16576616.328 -6249011.600 10 0 59192 67500.00000 0 -18733994.174 17040076.429 -3107964.986 10 0 59192 68400.00000 0 -18785234.921 17273999.059 93424.362 10 0 59192 69300.00000 0 -18539654.765 17233914.436 3293008.868 10 0 59192 70200.00000 0 -18039550.971 16884414.622 6428759.020 10 0 59192 71100.00000 0 -17334996.217 16200823.792 9439960.791 10 0 59192 72000.00000 0 -16481578.522 15170428.950 12268381.406 10 0 59192 72900.00000 0 -15537932.505 13793220.511 14859381.725 10 0 59192 73800.00000 0 -14563165.901 12082112.731 17162954.962 10 0 59192 74700.00000 0 -13614288.846 10062635.518 19134673.203 10 0 59192 75600.00000 0 -12743752.614 7772110.745 20736525.376 10 0 59192 76500.00000 0 -11997199.335 5258347.011 21937632.444 10 0 59192 77400.00000 0 -11411515.132 2577906.190 22714827.896 10 0 59192 78300.00000 0 -11013266.371 -205987.901 23053093.986 10 0 59192 79200.00000 0 -10817582.988 -3025814.210 22945846.516 10 0 59192 80100.00000 0 -10827534.638 -5812297.019 22395063.310 10 0 59192 81000.00000 0 -11034025.460 -8497023.876 21411253.948 10 0 59192 81900.00000 0 -11416212.286 -11015033.101 20013270.685 10 0 59192 82800.00000 0 -11942429.836 -13307265.966 18227963.020 10 0 59192 83700.00000 0 -12571585.760 -15322783.700 16089680.821 10 0 59192 84600.00000 0 -13254968.918 -17020658.488 13639633.561 10 0 59192 85500.00000 0 -13938396.930 -18371460.186 10925115.850 10 0 59193 0.00000 0 -14564614.474 -19358276.674 7998612.185 10 0 59193 900.00000 0 -15075842.426 -19977224.238 4916795.884 10 0 59193 1800.00000 0 -15416371.592 -20237425.967 1739441.275 10 0 59193 2700.00000 0 -15535090.222 -20160456.552 -1471732.068 10 0 59193 3600.00000 0 -15387838.820 -19779276.764 -4654259.908 10 0 59193 4500.00000 0 -14939489.948 -19136700.325 -7746155.400 10 0 59193 5400.00000 0 -14165663.148 -18283457.578 -10687127.939 10 0 59193 6300.00000 0 -13053999.492 -17275937.366 -13419773.784 10 0 59193 7200.00000 0 -11604938.971 -16173702.913 -15890713.525 10 0 59193 8100.00000 0 -9831964.991 -15036887.613 -18051652.521 10 0 59193 9000.00000 0 -7761303.015 -13923582.082 -19860341.884 10 0 59193 9900.00000 0 -5431084.037 -12887324.517 -21281419.603 10 0 59193 10800.00000 0 -2890006.475 -11974801.969 -22287114.097 10 0 59193 11700.00000 0 -195551.830 -11223861.077 -22857795.500 10 0 59193 12600.00000 0 2588171.305 -10661913.409 -22982363.233 10 0 59193 13500.00000 0 5392864.408 -10304803.312 -22658462.110 10 0 59193 14400.00000 0 8148654.877 -10156186.129 -21892522.860 10 0 59193 15300.00000 0 10786780.474 -10207442.515 -20699626.728 10 0 59193 16200.00000 0 13242229.591 -10438131.369 -19103197.550 10 0 59193 17100.00000 0 15456226.746 -10816960.706 -17134528.260 10 0 59193 18000.00000 0 17378459.426 -11303233.605 -14832152.284 10 0 59193 18900.00000 0 18968953.871 -11848706.105 -12241073.399 10 0 59193 19800.00000 0 20199522.617 -12399776.494 -9411870.411 10 0 59193 20700.00000 0 21054724.945 -12899911.629 -6399695.624 10 0 59193 21600.00000 0 21532302.451 -13292206.192 -3263187.868 10 0 59193 22500.00000 0 21643074.144 -13521965.669 -63322.440 10 0 59193 23400.00000 0 21410298.404 -13539203.388 3137778.689 10 0 59193 24300.00000 0 20868531.390 -13300946.158 6278052.717 10 0 59193 25200.00000 0 20062032.424 -12773251.724 9296694.341 10 0 59193 26100.00000 0 19042785.295 -11932853.855 12135323.557 10 0 59193 27000.00000 0 17868219.935 -10768366.908 14739101.112 10 0 59193 27900.00000 0 16598730.636 -9281000.234 17057771.265 10 0 59193 28800.00000 0 15295094.655 -7484753.369 19046613.238 10 0 59193 29700.00000 0 14015898.422 -5406084.203 20667284.855 10 0 59193 30600.00000 0 12815077.551 -3083063.811 21888544.089 10 0 59193 31500.00000 0 11739671.688 -564052.427 22686836.406 10 0 59193 32400.00000 0 10827885.996 2094049.864 23046738.283 10 0 59193 33300.00000 0 10107538.386 4827907.142 22961249.556 10 0 59193 34200.00000 0 9594955.852 7570121.531 22431929.627 10 0 59193 35100.00000 0 9294365.071 10251781.312 21468874.976 10 0 59193 36000.00000 0 9197802.395 12805080.477 20090537.798 10 0 59193 36900.00000 0 9285547.455 15165903.584 18323388.086 10 0 59193 37800.00000 0 9527063.186 17276270.809 16201423.965 10 0 59193 38700.00000 0 9882404.323 19086543.137 13765537.678 10 0 59193 39600.00000 0 10304036.955 20557296.627 11062747.316 10 0 59193 40500.00000 0 10738994.252 21660787.679 8145306.985 10 0 59193 41400.00000 0 11131278.981 22381947.474 5069710.722 10 0 59193 42300.00000 0 11424412.334 22718862.692 1895608.044 10 0 59193 43200.00000 0 11564021.598 22682720.859 -1315348.773 10 0 59193 44100.00000 0 11500356.664 22297220.991 -4500703.679 10 0 59193 45000.00000 0 11190627.533 21597472.780 -7598418.399 10 0 59193 45900.00000 0 10601061.826 20628429.550 -10548091.989 10 0 59193 46800.00000 0 9708592.589 19442920.378 -13292153.368 10 0 59193 47700.00000 0 8502102.112 18099364.293 -15777001.920 10 0 59193 48600.00000 0 6983166.184 16659263.499 -17954072.204 10 0 59193 49500.00000 0 5166264.519 15184582.343 -19780800.278 10 0 59193 50400.00000 0 3078446.066 13735123.976 -21221471.093 10 0 59193 51300.00000 0 758461.383 12366016.783 -22247929.141 10 0 59193 52200.00000 0 -1744602.809 11125417.975 -22840137.457 10 0 59193 53100.00000 0 -4373130.130 10052532.294 -22986573.371 10 0 59193 54000.00000 0 -7063146.554 9176029.998 -22684453.104 10 0 59193 54900.00000 0 -9746766.605 8512930.942 -21939780.868 10 0 59193 55800.00000 0 -12354810.718 8068001.273 -20767221.981 10 0 59193 56700.00000 0 -14819483.633 7833687.094 -19189803.214 10 0 59193 57600.00000 0 -17077001.265 7790586.223 -17238447.166 10 0 59193 58500.00000 0 -19070055.870 7908436.094 -14951350.939 10 0 59193 59400.00000 0 -20750016.598 8147573.778 -12373222.560 10 0 59193 60300.00000 0 -22078774.092 8460804.019 -9554391.373 10 0 59193 61200.00000 0 -23030153.113 8795594.114 -6549811.211 10 0 59193 62100.00000 0 -23590835.925 9096500.812 -3417977.115 10 0 59193 63000.00000 0 -23760760.013 9307725.081 -219777.790 10 0 59193 63900.00000 0 -23552976.021 9375685.734 2982692.789 10 0 59193 64800.00000 0 -22992974.579 9251502.683 6127340.999 10 0 59193 65700.00000 0 -22117512.801 8893285.094 9153272.812 10 0 59193 66600.00000 0 -20972991.834 8268128.474 12001963.601 10 0 59193 67500.00000 0 -19613455.128 7353737.466 14618376.630 10 0 59193 68400.00000 0 -18098292.182 6139607.068 16952009.807 10 0 59193 69300.00000 0 -16489744.054 4627713.634 18957851.974 10 0 59193 70200.00000 0 -14850314.335 2832687.303 20597232.177 10 0 59193 71100.00000 0 -13240192.430 781458.703 21838547.468 10 0 59193 72000.00000 0 -11714794.975 -1487605.747 22657857.074 10 0 59193 72900.00000 0 -10322525.810 -3926045.133 23039333.148 10 0 59193 73800.00000 0 -9102845.799 -6477067.998 22975560.660 10 0 59193 74700.00000 0 -8084731.068 -9077667.936 22467681.328 10 0 59193 75600.00000 0 -7285582.441 -11661005.756 21525378.918 10 0 59193 76500.00000 0 -6710630.652 -14158962.220 20166705.585 10 0 59193 77400.00000 0 -6352861.955 -16504758.034 18417751.485 10 0 59193 78300.00000 0 -6193467.614 -18635534.669 16312162.317 10 0 59193 79200.00000 0 -6202799.390 -20494790.523 13890512.078 10 0 59193 80100.00000 0 -6341792.294 -22034571.982 11199541.005 10 0 59193 81000.00000 0 -6563796.271 -23217328.367 8291271.272 10 0 59193 81900.00000 0 -6816741.065 -24017352.760 5222015.620 10 0 59193 82800.00000 0 -7045544.011 -24421747.281 2051296.714 10 0 59193 83700.00000 0 -7194659.516 -24430870.742 -1159302.802 10 0 59193 84600.00000 0 -7210662.194 -24058248.031 -4347337.619 10 0 59193 85500.00000 0 -7044753.355 -23329943.184 -7450720.797 99